"Pseudo-MPEC" for C3727K2

Created 2020 Sep 19 21:07:09 UT using Find_Orb

Click here for an explanation of pseudo-MPECs

 
 Astrometry: 
     C3727K2  C2020 09 16.44266 06 10 09.00 +52 54 38.1    ~9GBM 21.7 GVNEOCPG96
     C3727K2  C2020 09 16.44737 06 10 10.10 +52 54 37.2    ~9GBM 20.8 GVNEOCPG96
     C3727K2  C2020 09 16.45209 06 10 10.97 +52 54 36.6    ~9GBM 21.2 GVNEOCPG96
     C3727K2  C2020 09 16.46044 06 10 12.78 +52 54 35.0    ~9GBM 20.9 GVNEOCPG96
     C3727K2  C2020 09 17.49442 06 13 53.86 +52 51 52.7    ~9HCM 21.9 GVNEOCPV06
     C3727K2  C2020 09 17.49680 06 13 54.36 +52 51 52.2    ~9HCM 21.3 GVNEOCPV06
     C3727K2  C2020 09 17.49917 06 13 54.85 +52 51 51.8    ~9HCM 21.8 GVNEOCPV06
     C3727K2  C2020 09 17.50155 06 13 55.36 +52 51 51.6    ~9HCM 22.4 GVNEOCPV06

Station data:
(G96) Mt. Lemmon Survey  (N32.442754 W110.788720)  US/Arizona.  Observers T.
   A. Pruyne, B. M. Africano, E. J. Christensen, G. A. Farneth, D. C. Fuls,
   A. R. Gibbs, A. D. Grauer, H. Gröller, J. A. Johnson, R. A. Kowalski, S.
   M. Larson, G. J. Leonard, D. Rankin, R. L. Seaman, F. C. Shelly. 1.5-m
   reflector + 10K CCD.
(V06) Catalina Sky Survey-Kuiper  (N32.416847 W110.732550)  US/Arizona.
   Observers T. A. Pruyne, B. M. Africano, E. J. Christensen, G. A. Farneth,
   D. C. Fuls, A. R. Gibbs, A. D. Grauer, H. Gröller, J. A. Johnson, R. A.
   Kowalski, S. M. Larson, G. J. Leonard, D. Rankin, R. L. Seaman, F. C.
   Shelly. 1.55-m reflector + CCD.

Orbital elements:  C3727K2
   Perihelion 2020 Aug 10.168548 +/- 93.5 TT =  4:02:42 (JD 2459071.668548)
Epoch 2020 Sep 17.0 TT = JDT 2459109.5   Earth MOID: 0.5138   AutoNEOCP
M  10.35472295 +/- 80               (J2000 ecliptic)
n   0.27370672 +/- 0.354            Peri.   81.30316 +/- 110
a   2.34933925 +/- 2.03             Node   288.02255 +/- 18
e   0.4416229 +/- 0.226             Incl.   23.79230 +/- 10
P   3.60                   H 19.3   G  0.15   U 12.0  SR
q 1.31181709 +/- 0.423    Q 3.38686141 +/- 3.24
From 8 observations 2020 Sept. 16-17 (25.4 hr); mean residual 0".28
Residuals in arcseconds: 
200916 G96  .16-  .40+    200916 G96  .11-  .53-    200917 V06  .03-  .09-    
200916 G96  .74+  .07+    200917 V06  .06-  .08+    200917 V06  .11+  .07+    
200916 G96  .46-  .05+    200917 V06  .01-  .05-    

Ephemerides (geocentric):
Date (UTC) HH   RA              Dec         delta   r     elong  mag " sig PA
---- -- -- --  -------------   -----------  ------ ------ -----  --- ---- ---
2020 09 19 21  06 22 08.367   +52 44 09.69  1.0436 1.3722  84.1 21.8 90.6   6
2020 09 19 22  06 22 16.847   +52 44 00.63  1.0435 1.3723  84.1 21.8 93.3   7
2020 09 19 23  06 22 25.320   +52 43 51.54  1.0434 1.3725  84.1 21.8 96.1   7
2020 09 20 00  06 22 33.787   +52 43 42.41  1.0433 1.3726  84.2 21.8 98.9   7
2020 09 20 01  06 22 42.247   +52 43 33.25  1.0432 1.3727  84.2 21.8  102   7
2020 09 20 02  06 22 50.701   +52 43 24.06  1.0431 1.3728  84.2 21.8  105   7
2020 09 20 03  06 22 59.149   +52 43 14.83  1.0430 1.3729  84.2 21.8  108   7
2020 09 20 04  06 23 07.591   +52 43 05.57  1.0430 1.3731  84.2 21.8  111   7
2020 09 20 05  06 23 16.026   +52 42 56.28  1.0429 1.3732  84.2 21.8  114   7
2020 09 20 06  06 23 24.454   +52 42 46.96  1.0428 1.3733  84.2 21.8  117   7
2020 09 20 07  06 23 32.877   +52 42 37.60  1.0427 1.3734  84.3 21.8  120   7
2020 09 20 08  06 23 41.293   +52 42 28.21  1.0426 1.3735  84.3 21.8  123   7
2020 09 20 09  06 23 49.702   +52 42 18.79  1.0425 1.3737  84.3 21.8  126   7
2020 09 20 10  06 23 58.105   +52 42 09.33  1.0425 1.3738  84.3 21.8  130   7
2020 09 20 11  06 24 06.502   +52 41 59.85  1.0424 1.3739  84.3 21.8  133   7
2020 09 20 12  06 24 14.893   +52 41 50.33  1.0423 1.3740  84.3 21.8  136   7
2020 09 20 13  06 24 23.277   +52 41 40.77  1.0422 1.3741  84.3 21.8  140   7
2020 09 20 14  06 24 31.654   +52 41 31.19  1.0421 1.3743  84.4 21.8  143   7
2020 09 20 15  06 24 40.025   +52 41 21.57  1.0420 1.3744  84.4 21.8  146   7
2020 09 20 16  06 24 48.390   +52 41 11.92  1.0419 1.3745  84.4 21.8  150   7
2020 09 20 17  06 24 56.748   +52 41 02.24  1.0419 1.3746  84.4 21.8  153   7
2020 09 20 18  06 25 05.100   +52 40 52.53  1.0418 1.3747  84.4 21.8  157   7
2020 09 20 19  06 25 13.446   +52 40 42.78  1.0417 1.3749  84.4 21.8  161   7
2020 09 20 20  06 25 21.785   +52 40 33.00  1.0416 1.3750  84.4 21.8  164   7
2020 09 20 21  06 25 30.118   +52 40 23.20  1.0415 1.3751  84.5 21.8  168   7
2020 09 20 22  06 25 38.444   +52 40 13.35  1.0414 1.3752  84.5 21.8  172   7
2020 09 20 23  06 25 46.764   +52 40 03.48  1.0413 1.3754  84.5 21.8  176   7
2020 09 21 00  06 25 55.078   +52 39 53.58  1.0413 1.3755  84.5 21.8  179   7
2020 09 21 01  06 26 03.385   +52 39 43.64  1.0412 1.3756  84.5 21.8  183   7
2020 09 21 02  06 26 11.685   +52 39 33.67  1.0411 1.3757  84.5 21.8  187   7
2020 09 21 03  06 26 19.979   +52 39 23.67  1.0410 1.3758  84.5 21.8  191   7
2020 09 21 04  06 26 28.267   +52 39 13.64  1.0409 1.3760  84.6 21.8  195   8
2020 09 21 05  06 26 36.548   +52 39 03.58  1.0408 1.3761  84.6 21.8  199   8
2020 09 21 06  06 26 44.823   +52 38 53.48  1.0407 1.3762  84.6 21.8  203   8
2020 09 21 07  06 26 53.091   +52 38 43.35  1.0406 1.3763  84.6 21.8  208   8
2020 09 21 08  06 27 01.353   +52 38 33.20  1.0406 1.3765  84.6 21.8  212   8
2020 09 21 09  06 27 09.609   +52 38 23.01  1.0405 1.3766  84.6 21.8  216   8
2020 09 21 10  06 27 17.858   +52 38 12.79  1.0404 1.3767  84.6 21.8  220   8
2020 09 21 11  06 27 26.100   +52 38 02.54  1.0403 1.3768  84.7 21.8  225   8
2020 09 21 12  06 27 34.336   +52 37 52.26  1.0402 1.3769  84.7 21.8  229   8
2020 09 21 13  06 27 42.566   +52 37 41.94  1.0401 1.3771  84.7 21.8  233   8
2020 09 21 14  06 27 50.789   +52 37 31.60  1.0400 1.3772  84.7 21.8  238   8
2020 09 21 15  06 27 59.006   +52 37 21.22  1.0399 1.3773  84.7 21.8  242   8
2020 09 21 16  06 28 07.216   +52 37 10.82  1.0399 1.3774  84.7 21.8  247   8
2020 09 21 17  06 28 15.420   +52 37 00.38  1.0398 1.3776  84.7 21.8  251   8
2020 09 21 18  06 28 23.617   +52 36 49.91  1.0397 1.3777  84.8 21.8  256   8
2020 09 21 19  06 28 31.807   +52 36 39.42  1.0396 1.3778  84.8 21.8  261   8
2020 09 21 20  06 28 39.992   +52 36 28.89  1.0395 1.3779  84.8 21.8  265   8